Torna al catalogo

KINEIS-4E

AttivoComunicazioniSSO
NORAD 63300·PAYLOAD·🇫🇷 France

Lanciato Mar 18, 2025 da Rocket Lab Launch Complex 1

Loading…

Prossimi Passaggi (prossime 24 ore)

TLE

AggiornatoSource: Space-Track

Epoca: Sep 14, 2026, 14:50 UTC

1 63300U 25056A   26257.61815380  .00001137  00000-0  18749-3 0  9998
2 63300  97.9137  19.0830 0001096 178.0218 182.0994 14.72307529 80285

Traccia KINEIS-4E in tempo reale con AllMySat

Download on the App Store